TimeCST,TemperatureF,Dew PointF,Humidity,Sea Level PressureIn,VisibilityMPH,Wind Direction,Wind SpeedMPH,Gust SpeedMPH,PrecipitationIn,Events,Conditions,WindDirDegrees,DateUTC
12:13 AM,-0.4,-4.0,85,30.39,10.0,Calm,Calm,-,N/A,,Clear,0,2012-12-26 06:13:00
12:33 AM,-0.4,-4.0,85,30.38,10.0,Calm,Calm,-,N/A,,Clear,0,2012-12-26 06:33:00
1:13 AM,-0.4,-4.0,85,30.37,10.0,NW,3.5,-,N/A,,Clear,310,2012-12-26 07:13:00
1:33 AM,-0.4,-4.0,85,30.37,10.0,NNW,4.6,-,N/A,,Clear,340,2012-12-26 07:33:00
1:53 AM,-0.4,-4.0,85,30.37,10.0,North,4.6,-,N/A,,Clear,350,2012-12-26 07:53:00
2:13 AM,-0.4,-4.0,85,30.38,10.0,NNW,4.6,-,N/A,,Clear,330,2012-12-26 08:13:00
2:33 AM,1.4,-2.2,85,30.38,10.0,NNW,4.6,-,N/A,,Clear,340,2012-12-26 08:33:00
2:53 AM,1.4,-2.2,85,30.38,10.0,Calm,Calm,-,N/A,,Clear,0,2012-12-26 08:53:00
3:13 AM,1.4,-2.2,85,30.37,10.0,Calm,Calm,-,N/A,,Clear,0,2012-12-26 09:13:00
3:33 AM,1.4,-2.2,85,30.37,10.0,Calm,Calm,-,N/A,,Scattered Clouds,0,2012-12-26 09:33:00
3:53 AM,1.4,-2.2,85,30.37,10.0,Calm,Calm,-,N/A,,Scattered Clouds,0,2012-12-26 09:53:00
4:13 AM,1.4,-2.2,85,30.36,10.0,Calm,Calm,-,N/A,,Clear,0,2012-12-26 10:13:00
4:33 AM,1.4,-2.2,85,30.35,10.0,Calm,Calm,-,N/A,,Clear,0,2012-12-26 10:33:00
4:53 AM,1.4,-2.2,85,30.35,10.0,Calm,Calm,-,N/A,,Clear,0,2012-12-26 10:53:00
5:13 AM,1.4,-2.2,85,30.34,10.0,Calm,Calm,-,N/A,,Clear,0,2012-12-26 11:13:00
5:33 AM,3.2,-2.2,78,30.34,10.0,Calm,Calm,-,N/A,,Clear,0,2012-12-26 11:33:00
5:53 AM,3.2,-0.4,85,30.33,10.0,North,3.5,-,N/A,,Clear,350,2012-12-26 11:53:00
6:13 AM,3.2,-0.4,85,30.33,10.0,North,4.6,-,N/A,,Scattered Clouds,350,2012-12-26 12:13:00
6:33 AM,3.2,-0.4,85,30.33,10.0,North,3.5,-,N/A,,Overcast,360,2012-12-26 12:33:00
6:53 AM,3.2,-0.4,85,30.33,10.0,North,4.6,-,N/A,,Mostly Cloudy,360,2012-12-26 12:53:00
7:13 AM,3.2,-0.4,85,30.33,10.0,North,3.5,-,N/A,,Scattered Clouds,360,2012-12-26 13:13:00
7:33 AM,3.2,-0.4,85,30.33,10.0,North,3.5,-,N/A,,Mostly Cloudy,350,2012-12-26 13:33:00
7:53 AM,3.2,-0.4,85,30.33,10.0,North,3.5,-,N/A,,Overcast,10,2012-12-26 13:53:00
8:14 AM,3.2,-0.4,85,30.32,10.0,Calm,Calm,-,N/A,,Overcast,0,2012-12-26 14:14:00
8:33 AM,3.2,-0.4,85,30.31,10.0,Calm,Calm,-,N/A,,Scattered Clouds,0,2012-12-26 14:33:00
8:53 AM,3.2,-0.4,85,30.31,10.0,Calm,Calm,-,N/A,,Clear,0,2012-12-26 14:53:00
9:14 AM,3.2,-0.4,85,30.31,10.0,Calm,Calm,-,N/A,,Scattered Clouds,0,2012-12-26 15:14:00
9:33 AM,3.2,-0.4,85,30.31,10.0,Calm,Calm,-,N/A,,Clear,0,2012-12-26 15:33:00
9:53 AM,3.2,-0.4,85,30.31,10.0,NNE,4.6,-,N/A,,Clear,30,2012-12-26 15:53:00
10:13 AM,5.0,-0.4,78,30.31,10.0,NNE,4.6,-,N/A,,Clear,20,2012-12-26 16:13:00
10:33 AM,6.8,1.4,79,30.31,10.0,NNE,3.5,-,N/A,,Clear,20,2012-12-26 16:33:00
10:53 AM,6.8,1.4,79,30.31,10.0,Calm,Calm,-,N/A,,Clear,0,2012-12-26 16:53:00
11:13 AM,6.8,1.4,79,30.31,10.0,Calm,Calm,-,N/A,,Clear,0,2012-12-26 17:13:00
11:33 AM,6.8,1.4,79,30.30,10.0,Calm,Calm,-,N/A,,Clear,0,2012-12-26 17:33:00
11:53 AM,8.6,1.4,73,30.30,10.0,Calm,Calm,-,N/A,,Clear,0,2012-12-26 17:53:00
12:33 PM,8.6,1.4,73,30.28,10.0,Calm,Calm,-,N/A,,Clear,0,2012-12-26 18:33:00
12:53 PM,10.4,3.2,73,30.28,10.0,Calm,Calm,-,N/A,,Clear,0,2012-12-26 18:53:00
1:13 PM,10.4,3.2,73,30.27,10.0,Calm,Calm,-,N/A,,Scattered Clouds,0,2012-12-26 19:13:00
1:33 PM,10.4,3.2,73,30.27,10.0,NNE,3.5,-,N/A,,Overcast,30,2012-12-26 19:33:00
1:53 PM,10.4,3.2,73,30.27,10.0,NNE,3.5,-,N/A,,Overcast,20,2012-12-26 19:53:00
2:13 PM,10.4,3.2,73,30.27,10.0,Calm,Calm,-,N/A,,Overcast,0,2012-12-26 20:13:00
2:33 PM,10.4,3.2,73,30.27,10.0,North,3.5,-,N/A,,Overcast,360,2012-12-26 20:33:00
2:53 PM,10.4,3.2,73,30.26,10.0,North,3.5,-,N/A,,Overcast,360,2012-12-26 20:53:00
3:13 PM,12.2,3.2,67,30.26,10.0,NNE,3.5,-,N/A,,Overcast,30,2012-12-26 21:13:00
3:33 PM,12.2,3.2,67,30.25,10.0,NNE,3.5,-,N/A,,Mostly Cloudy,30,2012-12-26 21:33:00
3:53 PM,12.2,3.2,67,30.26,10.0,NNE,3.5,-,N/A,,Scattered Clouds,30,2012-12-26 21:53:00
4:13 PM,10.4,3.2,73,30.26,10.0,Calm,Calm,-,N/A,,Clear,0,2012-12-26 22:13:00
4:33 PM,10.4,3.2,73,30.26,10.0,Calm,Calm,-,N/A,,Clear,0,2012-12-26 22:33:00
4:53 PM,10.4,3.2,73,30.26,10.0,Calm,Calm,-,N/A,,Clear,0,2012-12-26 22:53:00
5:13 PM,8.6,3.2,79,30.25,10.0,Calm,Calm,-,N/A,,Clear,0,2012-12-26 23:13:00
5:33 PM,8.6,3.2,79,30.25,10.0,Calm,Calm,-,N/A,,Unknown,0,2012-12-26 23:33:00
5:53 PM,8.6,1.4,73,30.25,10.0,Calm,Calm,-,N/A,,Unknown,0,2012-12-26 23:53:00
6:13 PM,6.8,1.4,79,30.25,10.0,Calm,Calm,-,N/A,,Clear,0,2012-12-27 00:13:00
6:33 PM,8.6,3.2,79,30.25,10.0,Calm,Calm,-,N/A,,Clear,0,2012-12-27 00:33:00
6:53 PM,6.8,3.2,85,30.25,10.0,Calm,Calm,-,N/A,,Scattered Clouds,0,2012-12-27 00:53:00
7:13 PM,6.8,3.2,85,30.25,10.0,Calm,Calm,-,N/A,,Mostly Cloudy,0,2012-12-27 01:13:00
7:33 PM,8.6,3.2,79,30.25,10.0,Calm,Calm,-,N/A,,Overcast,0,2012-12-27 01:33:00
7:53 PM,8.6,3.2,79,30.24,10.0,Calm,Calm,-,N/A,,Overcast,0,2012-12-27 01:53:00
8:13 PM,8.6,5.0,85,30.24,10.0,NE,3.5,-,N/A,,Overcast,50,2012-12-27 02:13:00
8:33 PM,8.6,5.0,85,30.24,10.0,ENE,3.5,-,N/A,,Overcast,70,2012-12-27 02:33:00
8:53 PM,8.6,5.0,85,30.24,10.0,Calm,Calm,-,N/A,,Overcast,0,2012-12-27 02:53:00
9:13 PM,8.6,5.0,85,30.24,10.0,Calm,Calm,-,N/A,,Overcast,0,2012-12-27 03:13:00
9:33 PM,8.6,3.2,79,30.24,10.0,Calm,Calm,-,N/A,,Overcast,0,2012-12-27 03:33:00
9:53 PM,8.6,3.2,79,30.23,10.0,Calm,Calm,-,N/A,,Mostly Cloudy,0,2012-12-27 03:53:00
10:13 PM,5.0,3.2,92,30.22,10.0,Calm,Calm,-,N/A,,Scattered Clouds,0,2012-12-27 04:13:00
10:33 PM,6.8,3.2,85,30.22,10.0,Calm,Calm,-,N/A,,Clear,0,2012-12-27 04:33:00
10:53 PM,6.8,3.2,85,30.22,10.0,Calm,Calm,-,N/A,,Clear,0,2012-12-27 04:53:00
11:13 PM,3.2,1.4,92,30.22,10.0,Calm,Calm,-,N/A,,Clear,0,2012-12-27 05:13:00
11:33 PM,3.2,1.4,92,30.22,10.0,Calm,Calm,-,N/A,,Clear,0,2012-12-27 05:33:00
11:53 PM,5.0,3.2,92,30.22,10.0,Calm,Calm,-,N/A,,Clear,0,2012-12-27 05:53:00